Location: Wildlife_Club
(35.6000°N, 81.4330°W)
Time: 23:29:37
(UTC-04:00)

Iridium 56 - Visible Passes

Search period start: 24 June 2017 00:00
Search period end: 04 July 2017 00:00
Orbit: 776 x 779 km, 86.4° (Epoch: 24 June)

Date Brightness Start Highest point End Pass type
(mag) Time Alt. Az. Time Alt. Az. Time Alt. Az.
24 Jun 8.4 05:16:57 10° ESE 05:19:58 16° E 05:22:59 10° NE visible
27 Jun 8.0 05:15:53 10° SE 05:19:54 23° E 05:23:56 10° NNE visible
28 Jun 8.5 04:44:52 10° E 04:46:43 12° ENE 04:48:34 10° ENE visible
30 Jun 7.3 05:15:15 10° SSE 05:19:54 34° E 05:24:33 10° NNE visible
01 Jul 8.2 04:43:12 10° ESE 04:46:38 18° E 04:50:04 10° NE visible
03 Jul 6.5 05:14:55 10° SSE 05:19:55 50° E 05:24:57 10° NNE visible
